,

(GMT )
Banff

Weather History for CWZG - March, 2014

Change the Weather History Date:

Monday, March 24, 2014

  Actual Average Record
Temperature  
Mean Temperature 17 °F -  
Max Temperature 26 °F - - ()
Min Temperature 8 °F - - ()
Degree Days  
Heating Degree Days 48    
Moisture  
Dew Point 6 °F    
Average Humidity 70    
Maximum Humidity 90    
Minimum Humidity 39    
Precipitation  
Precipitation 0.01 in - - ()
Sea Level Pressure  
Sea Level Pressure 30.48 in    
Wind  
Wind Speed 4 mph ()    
Max Wind Speed 10 mph    
Max Gust Speed -    
T = Trace of Precipitation, MM = Missing Value Source: Averaged Metar Reports

Daily Weather History Graph

Daily Weather History Graph

Search for Another Location

Airport or City:

Trip Planner

Search our weather history database for the weather conditions in past years. The results will help you decide how hot, cold, wet, or windy it might be!

Date:

Astronomy

Mar. 24, 2014 Rise Set
Actual Time 7:35 AM MDT 8:02 PM MDT
Civil Twilight 7:02 AM MDT 8:35 PM MDT
Nautical Twilight 6:22 AM MDT 9:15 PM MDT
Astronomical Twilight 5:41 AM MDT 9:56 PM MDT
Moon 3:46 AM MDT (3/24) 12:55 PM MDT (3/24)
Length of Visible Light 13h 33m
Length of Day
12h 26m
Last Quarter, 42% of the Moon is Illuminated
Mar 24
Last Quarter
Mar 30
New
Apr 7
First Quarter
Apr 15
Full
Apr 22
Last Quarter

Hourly Weather History & Observations

Time (MDT) Temp. Windchill Dew Point Humidity Pressure Visibility Wind Dir Wind Speed Gust Speed Precip Events Conditions
12:00 AM 10.0 °F 3.6 °F 7.2 °F 88% 30.50 in - ENE 3.5 mph - 0.01 in   Unknown
1:00 AM 10.9 °F 4.7 °F 7.5 °F 86% 30.50 in - East 3.5 mph - N/A   Unknown
2:00 AM 10.4 °F 4.0 °F 7.0 °F 86% 30.50 in - NNE 3.5 mph - N/A   Unknown
3:00 AM 9.7 °F - 6.8 °F 88% 30.50 in - NNE 2.3 mph - N/A   Unknown
4:00 AM 10.0 °F 3.6 °F 7.0 °F 87% 30.51 in - ENE 3.5 mph - N/A   Unknown
5:00 AM 10.9 °F 2.9 °F 8.1 °F 88% 30.52 in - NNE 4.6 mph - N/A   Unknown
6:00 AM 10.4 °F 4.0 °F 7.7 °F 89% 30.53 in - ENE 3.5 mph - N/A   Unknown
7:00 AM 9.0 °F 2.4 °F 6.6 °F 90% 30.56 in - ENE 3.5 mph - N/A   Unknown
8:00 AM 8.2 °F -0.3 °F 4.6 °F 85% 30.56 in - NNE 4.6 mph - 0.01 in   Unknown
9:00 AM 9.5 °F - 5.2 °F 83% 30.56 in - ENE 2.3 mph - N/A   Unknown
10:00 AM 11.7 °F 3.7 °F 5.2 °F 75% 30.57 in - NE 4.6 mph - N/A   Unknown
11:00 AM 14.9 °F 9.2 °F 7.7 °F 73% 30.56 in - NE 3.5 mph - N/A   Unknown
12:00 PM 17.1 °F 10.0 °F 3.2 °F 55% 30.54 in - NNE 4.6 mph - N/A   Unknown
1:00 PM 20.3 °F 13.8 °F 2.1 °F 45% 30.51 in - East 4.6 mph - N/A   Unknown
2:00 PM 23.0 °F 17.0 °F 2.1 °F 41% 30.48 in - ENE 4.6 mph - N/A   Unknown
3:00 PM 26.1 °F 21.9 °F 4.3 °F 39% 30.46 in - East 3.5 mph - N/A   Unknown
4:00 PM 24.6 °F 16.7 °F 4.6 °F 42% 30.44 in - East 6.9 mph - N/A   Unknown
5:00 PM 24.4 °F 15.6 °F 6.4 °F 46% 30.42 in - East 8.1 mph - N/A   Unknown
6:00 PM 22.3 °F 11.5 °F 8.1 °F 54% 30.41 in - East 10.4 mph - N/A   Unknown
7:00 PM 20.8 °F 12.1 °F 8.1 °F 58% 30.41 in - East 6.9 mph - N/A   Unknown
8:00 PM 17.6 °F 9.3 °F 9.0 °F 69% 30.42 in - NE 5.8 mph - N/A   Unknown
9:00 PM 16.7 °F 9.6 °F 9.1 °F 72% 30.40 in - ENE 4.6 mph - N/A   Unknown
10:00 PM 15.1 °F - 8.6 °F 76% 30.37 in - ENE 2.3 mph - N/A   Unknown
11:00 PM 16.7 °F - 8.8 °F 71% 30.34 in - NE 1.2 mph - N/A   Unknown